STARLINK-34423 (64460 NORAD) Tracking and Keplerian Element Data

This shows tracking and keplerian element data for the satellite.

Feedback or suggestion? Click here.




ElementValue
Catalog64460
NameSTARLINK-34423
Epoch Orbit2842
Epoch Day353.46046913
Epoch Year2025
RAAN100.9039
Inclination53.1583
Eccentricity0.0001185
Argument of Perigee105.4773
Mean Anonmoly254.6359
Mean Motion15.30211548
Decay Rate0.00018744
L11 64460U 25130Y 25353.46046913 .00018744 00000+0 64316-3 0 9998
L22 64460 53.1583 100.9039 0001185 105.4773 254.6359 15.30211548 28421



Live tracking and technical data element details for STARLINK-34423 (NORAD 64460). STARLINK-34423 can be tracked NOW for your location showing map with azimuth and elevation plus other details from your city location.







IsCatalogInMostPopularTable: catalog: 64460, numindb: 3
Update: records affected: 1



GetName: 64460 STARLINK-34423

Hit Count: updated at: Tue, 10 Feb 2026 02:05:01 GMT